Location: Perryvale
(54.4667°N, 113.3833°W)
Time: 23:03:59
(UTC+00:00)

Vanguard 1 - Pass Details

Date: 25 May 2024
Orbit: 652 x 3825 km, 34.2° (Epoch: 13 June)

Event Time Altitude Azimuth Distance (km) Brightness Sun altitude
Rises 04:21:17 0° 230° (SW) 4,497 13.5 -4.3°
Reaches altitude 10° 04:24:17 10° 219° (SW) 3,883 13.0 -4.6°
Maximum altitude 04:33:10 30° 164° (SSE) 3,542 12.4 -5.5°
Drops below altitude 10° 04:47:02 10° 113° (ESE) 6,150 13.6 -6.8°
Sets 04:53:29 0° 105° (ESE) 7,569 14.1 -7.3°
